Ketchikan, AK

6:10 AM AKST on December 18, 2018 (GMT -0900)
Ketchikan International

Weather History for PAKT - May, 2018

Change the Weather History Date:

Tuesday, May 8, 2018

  Actual Average Record
Temperature  
Mean Temperature 55 °F -  
Max Temperature 66 °F 55 °F 74 °F (1957)
Min Temperature 46 °F 39 °F 30 °F (1971)
Degree Days  
Heating Degree Days 10    
Growing Degree Days 5 (Base 50)    
Moisture  
Dew Point 47 °F    
Average Humidity 86    
Maximum Humidity 100    
Minimum Humidity 50    
Precipitation  
Precipitation 0.00 in - - ()
Sea Level Pressure  
Sea Level Pressure 30.06 in    
Wind  
Wind Speed 5 mph (NNW)    
Max Wind Speed 12 mph    
Max Gust Speed -    
Visibility 6 miles    
Events Fog    
Averages and records for this station are not official NWS values.
T = Trace of Precipitation, MM = Missing Value Source: NWS Daily Summary

Daily Weather History Graph

Daily Weather History Graph

Search for Another Location

Airport or City:

Astronomy

May. 08, 2018 Rise Set
Actual Time 4:50 AM AKDT 8:37 PM AKDT
Civil Twilight 4:04 AM AKDT 9:23 PM AKDT
Nautical Twilight 2:59 AM AKDT 10:30 PM AKDT
Astronomical Twilight 1:15 AM AKDT 12:10 AM AKDT
Moon 2:53 AM AKDT (5/8) 12:11 PM AKDT (5/8)
Length of Visible Light 17h 19m
Length of Day
15h 47m
Last Quarter, 43% of the Moon is Illuminated
May 8
Last Quarter
May 15
New
May 21
First Quarter
May 29
Full
Jun 6
Last Quarter

Hourly Weather History & Observations

Time (AKDT) Temp. Windchill Dew Point Humidity Pressure Visibility Wind Dir Wind Speed Gust Speed Precip Events Conditions
12:53 AM 48.0 °F - 46.9 °F 96% 30.19 in 10.0 mi SSE 4.6 mph - N/A   Overcast
1:51 AM 48.2 °F - 46.4 °F 93% 30.20 in 10.0 mi ESE 9.2 mph - N/A   Overcast
1:53 AM 48.0 °F - 46.9 °F 96% 30.21 in 10.0 mi ESE 8.1 mph - N/A   Overcast
2:53 AM 46.9 °F - 46.0 °F 97% 30.19 in 10.0 mi SSE 4.6 mph - N/A   Overcast
3:25 AM 46.9 °F - 46.0 °F 97% 30.17 in 1.8 mi SE 6.9 mph - N/A   Overcast
3:35 AM 46.9 °F - 46.0 °F 97% 30.17 in 0.5 mi SE 8.1 mph - N/A Fog Fog
3:44 AM 46.0 °F 41.9 °F 46.0 °F 100% 30.16 in 0.2 mi SE 8.1 mph - N/A Fog Fog
3:53 AM 46.0 °F 43.1 °F 45.0 °F 96% 30.17 in 0.5 mi SSE 5.8 mph - N/A Fog Fog
4:02 AM 46.0 °F 42.5 °F 46.0 °F 100% 30.16 in 1.5 mi SE 6.9 mph - N/A   Overcast
4:07 AM 46.9 °F - 46.0 °F 97% 30.15 in 3.0 mi ESE 4.6 mph - N/A   Overcast
4:53 AM 46.0 °F - 46.0 °F 100% 30.14 in 3.0 mi Calm Calm - N/A   Overcast
5:03 AM 46.0 °F - 46.0 °F 100% 30.13 in 1.5 mi Calm Calm - N/A   Overcast
5:12 AM 46.9 °F - 46.0 °F 97% 30.14 in 0.5 mi Calm Calm - N/A Fog Fog
5:19 AM 46.9 °F - 46.0 °F 97% 30.14 in 0.2 mi Calm Calm - N/A Fog Fog
5:30 AM 46.9 °F - 46.0 °F 97% 30.14 in 0.2 mi Calm Calm - N/A Fog Fog
5:41 AM 46.0 °F - 46.0 °F 100% 30.14 in 0.2 mi Calm Calm - N/A Fog Fog
5:53 AM 46.9 °F - 46.0 °F 97% 30.13 in 0.2 mi NNW 5.8 mph - N/A Fog Fog
6:00 AM 46.9 °F - 46.0 °F 97% 30.13 in 0.5 mi NNW 4.6 mph - N/A Fog Fog
6:13 AM 46.4 °F - 46.4 °F 100% 30.13 in 0.8 mi Calm Calm - N/A   Overcast
6:53 AM 46.4 °F 45.2 °F 46.4 °F 100% 30.12 in 0.8 mi NW 3.5 mph - N/A   Overcast
7:01 AM 46.4 °F 44.3 °F 46.4 °F 100% 30.12 in 1.0 mi NNW 4.6 mph - N/A   Scattered Clouds
7:03 AM 46.4 °F 44.3 °F 46.4 °F 100% 30.12 in 0.8 mi NNW 4.6 mph - N/A   Overcast
7:10 AM 46.4 °F 43.5 °F 46.4 °F 100% 30.11 in 0.8 mi NNW 5.8 mph - N/A   Scattered Clouds
7:53 AM 48.2 °F - 46.4 °F 93% 30.09 in 0.5 mi NW 8.1 mph - N/A Fog Fog
8:10 AM 48.0 °F - 46.9 °F 96% 30.08 in 1.2 mi NW 8.1 mph - N/A   Scattered Clouds
8:34 AM 48.9 °F - 46.9 °F 93% 30.08 in 10.0 mi NW 6.9 mph - N/A   Partly Cloudy
8:53 AM 51.8 °F - 46.4 °F 82% 30.07 in 10.0 mi NW 8.1 mph - N/A   Partly Cloudy
9:40 AM 51.8 °F - 46.4 °F 82% 30.06 in 0.5 mi NNW 10.4 mph - N/A Fog Shallow Fog
9:51 AM 51.8 °F - 46.4 °F 82% 30.05 in 10.0 mi NW 11.5 mph - N/A   Clear
9:53 AM 50.0 °F - 46.4 °F 87% 30.06 in 10.0 mi NW 10.4 mph - N/A   Clear
10:53 AM 51.8 °F - 46.4 °F 82% 30.04 in 10.0 mi NNW 6.9 mph - N/A   Clear
11:53 AM 53.6 °F - 46.4 °F 77% 30.02 in 10.0 mi NNW 9.2 mph - N/A   Clear
12:53 PM 60.8 °F - 46.4 °F 59% 29.99 in 10.0 mi NW 5.8 mph - N/A   Clear
1:53 PM 60.8 °F - 46.4 °F 59% 29.96 in 10.0 mi NW 6.9 mph - N/A   Clear
2:53 PM 63.0 °F - 46.9 °F 56% 29.94 in 10.0 mi NW 10.4 mph - N/A   Clear
3:53 PM 64.9 °F - 46.0 °F 50% 29.92 in 10.0 mi NNW 9.2 mph - N/A   Clear
4:53 PM 64.9 °F - 46.9 °F 52% 29.89 in 10.0 mi NW 6.9 mph - N/A   Clear
5:53 PM 64.9 °F - 48.0 °F 54% 29.88 in 10.0 mi North 4.6 mph - N/A   Clear
6:53 PM 63.0 °F - 48.9 °F 60% 29.86 in 10.0 mi Calm Calm - N/A   Clear
7:53 PM 62.1 °F - 51.1 °F 67% 29.84 in 10.0 mi NW 3.5 mph - N/A   Clear
8:53 PM 57.2 °F - 50.0 °F 77% 29.82 in 10.0 mi Calm Calm - N/A   Clear
9:53 PM 57.9 °F - 48.9 °F 72% 29.80 in 10.0 mi Calm Calm - N/A   Clear
10:53 PM 55.9 °F - 50.0 °F 80% 29.79 in 10.0 mi Calm Calm - N/A   Clear
11:53 PM 57.0 °F - 48.9 °F 74% 29.79 in 10.0 mi SSE 4.6 mph - N/A   Partly Cloudy